| time (UTC) | temp F | wind direction | speed MPH | gust MPH | rain 1hr in | rain 24hr in | rain mn in | humidity % | barometer mb |
| 20260903143351 | 72 | 249 | 2.0 | 9.0 | 0.00 | 0.52 | 0.16 | 95 | 1015.3 |
| 20260903143117 | 72 | 278 | 3.0 | 9.0 | 0.00 | 0.52 | 0.16 | 95 | 1015.0 |
| 20260903143106 | 72 | 255 | 3.0 | 8.0 | 0.00 | 0.52 | 0.16 | 95 | 1015.0 |
| 20260903142855 | 72 | 223 | 4.0 | 6.0 | 0.00 | 0.52 | 0.16 | 95 | 1015.5 |
| 20260903142345 | 72 | 275 | 1.0 | 7.0 | 0.00 | 0.52 | 0.16 | 95 | 1015.4 |
| 20260903141853 | 72 | 279 | 3.0 | 7.0 | 0.00 | 0.52 | 0.16 | 95 | 1015.3 |
| 20260903141601 | 71 | 314 | 3.0 | 7.0 | 0.00 | 0.52 | 0.16 | 95 | 1015.0 |
| 20260903141553 | 71 | 289 | 1.0 | 5.0 | 0.00 | 0.52 | 0.16 | 95 | 1015.0 |
| 20260903141344 | 72 | 5 | 2.0 | 5.0 | 0.00 | 0.52 | 0.16 | 95 | 1015.4 |
| 20260903140853 | 71 | 250 | 1.0 | 11.0 | 0.00 | 0.52 | 0.16 | 95 | 1015.2 |
| 20260903140404 | 71 | 232 | 2.0 | 11.0 | 0.00 | 0.52 | 0.16 | 96 | 1015.3 |
| 20260903140114 | 71 | 164 | 2.0 | 11.0 | 0.00 | 0.52 | 0.16 | 96 | 1014.9 |
| 20260903140057 | 71 | 240 | 1.0 | 6.0 | 0.00 | 0.52 | 0.16 | 95 | 1014.9 |
| 20260903135850 | 71 | 263 | 1.0 | 4.0 | 0.00 | 0.52 | 0.16 | 96 | 1015.3 |
| 20260903135359 | 71 | 211 | 0.0 | 2.0 | 0.00 | 0.52 | 0.16 | 96 | 1015.2 |
| 20260903134849 | 71 | 227 | 0.0 | 4.0 | 0.00 | 0.52 | 0.16 | 96 | 1015.4 |
| 20260903134617 | 71 | 227 | 0.0 | 4.0 | 0.00 | 0.52 | 0.16 | 96 | 1015.0 |
| 20260903134556 | 71 | 227 | 1.0 | 4.0 | 0.00 | 0.52 | 0.16 | 95 | 1014.9 |
| 20260903134400 | 71 | 212 | 2.0 | 4.0 | 0.00 | 0.52 | 0.16 | 96 | 1015.4 |
| 20260903133851 | 71 | 233 | 0.0 | 4.0 | 0.00 | 0.52 | 0.16 | 96 | 1015.4 |
| 20260903133342 | 71 | 214 | 2.0 | 4.0 | 0.00 | 0.52 | 0.16 | 96 | 1015.3 |
| 20260903133109 | 70 | 204 | 1.0 | 3.0 | 0.00 | 0.52 | 0.16 | 95 | 1015.0 |
| 20260903133104 | 70 | 0 | 1.0 | 5.0 | 0.00 | 0.52 | 0.16 | 95 | 1014.9 |
| 20260903132848 | 71 | 225 | 1.0 | 5.0 | 0.00 | 0.52 | 0.16 | 95 | 1015.4 |
| 20260903132343 | 71 | 225 | 1.0 | 5.0 | 0.00 | 0.52 | 0.16 | 96 | 1015.4 |
| 20260903131852 | 71 | 39 | 1.0 | 3.0 | 0.00 | 0.52 | 0.16 | 96 | 1015.3 |
| 20260903131614 | 70 | 203 | 0.0 | 4.0 | 0.00 | 0.52 | 0.16 | 96 | 1014.9 |
| 20260903131556 | 70 | 0 | 0.0 | 4.0 | 0.00 | 0.52 | 0.16 | 95 | 1014.8 |
| 20260903131340 | 70 | 171 | 0.0 | 4.0 | 0.00 | 0.52 | 0.16 | 96 | 1015.3 |
| 20260903130848 | 70 | 171 | 1.0 | 4.0 | 0.00 | 0.52 | 0.16 | 95 | 1015.3 |
| 20260903130356 | 70 | 120 | 0.0 | 3.0 | 0.00 | 0.52 | 0.16 | 95 | 1015.3 |
| 20260903130125 | 70 | 0 | 0.0 | 1.0 | 0.00 | 0.52 | 0.16 | 95 | 1015.0 |
| 20260903130114 | 70 | 86 | 0.0 | 1.0 | 0.00 | 0.52 | 0.16 | 95 | 1015.1 |
| 20260903125841 | 70 | 178 | 0.0 | 1.0 | 0.00 | 0.52 | 0.16 | 95 | 1015.7 |
| 20260903125348 | 70 | 178 | 0.0 | 2.0 | 0.00 | 0.52 | 0.16 | 95 | 1015.7 |
| 20260903124837 | 70 | 178 | 0.0 | 2.0 | 0.00 | 0.52 | 0.16 | 95 | 1015.6 |
| 20260903124621 | 70 | 178 | 0.0 | 2.0 | 0.00 | 0.52 | 0.16 | 95 | 1015.2 |
| 20260903124558 | 69 | 178 | 0.0 | 1.0 | 0.00 | 0.52 | 0.16 | 95 | 1015.2 |
| 20260903124347 | 70 | 216 | 0.0 | 1.0 | 0.00 | 0.52 | 0.16 | 95 | 1015.8 |
| 20260903123857 | 70 | 216 | 0.0 | 2.0 | 0.00 | 0.52 | 0.16 | 96 | 1015.9 |
| 20260903123347 | 70 | 216 | 0.0 | 2.0 | 0.00 | 0.52 | 0.16 | 96 | 1016.0 |
| 20260903123107 | 69 | 217 | 0.0 | 2.0 | 0.00 | 0.52 | 0.16 | 96 | 1015.6 |
| 20260903123053 | 69 | 0 | 0.0 | 2.0 | 0.00 | 0.52 | 0.16 | 95 | 1015.6 |
| 20260903122914 | 70 | 217 | 1.0 | 2.0 | 0.00 | 0.52 | 0.16 | 96 | 1016.0 |
| 20260903122343 | 70 | 119 | 0.0 | 1.0 | 0.00 | 0.52 | 0.16 | 96 | 1015.8 |
| 20260903121853 | 70 | 119 | 0.0 | 1.0 | 0.00 | 0.52 | 0.16 | 95 | 1016.0 |
| 20260903121555 | 69 | 119 | 0.0 | 1.0 | 0.00 | 0.52 | 0.16 | 95 | 1015.5 |
| 20260903121504 | 69 | 119 | 0.0 | 1.0 | 0.00 | 0.52 | 0.16 | 95 | 1015.6 |
| 20260903121404 | 69 | 119 | 0.0 | 1.0 | 0.00 | 0.52 | 0.16 | 95 | 1016.0 |
| 20260903120854 | 69 | 119 | 0.0 | 1.0 | 0.00 | 0.52 | 0.16 | 95 | 1015.8 |
| 20260903120346 | 69 | 120 | 0.0 | 1.0 | 0.00 | 0.52 | 0.16 | 95 | 1016.1 |
| 20260903120110 | 69 | 120 | 0.0 | 1.0 | 0.00 | 0.52 | 0.16 | 96 | 1015.7 |
| 20260903120053 | 69 | 0 | 0.0 | 1.0 | 0.00 | 0.52 | 0.16 | 95 | 1015.6 |
| 20260903115852 | 69 | 120 | 0.0 | 1.0 | 0.00 | 0.52 | 0.16 | 95 | 1016.2 |
| 20260903115341 | 69 | 119 | 0.0 | 1.0 | 0.00 | 0.52 | 0.16 | 96 | 1016.1 |
| 20260903114851 | 69 | 119 | 1.0 | 1.0 | 0.00 | 0.52 | 0.16 | 95 | 1016.1 |
| 20260903114619 | 68 | 119 | 0.0 | 0.0 | 0.00 | 0.52 | 0.16 | 95 | 1015.6 |
| 20260903114552 | 68 | 0 | 0.0 | 2.0 | 0.00 | 0.52 | 0.16 | 95 | 1015.4 |
| 20260903114341 | 69 | 119 | 0.0 | 1.0 | 0.00 | 0.52 | 0.16 | 95 | 1016.0 |
| 20260903113850 | 69 | 119 | 0.0 | 2.0 | 0.00 | 0.52 | 0.16 | 95 | 1016.0 |
| 20260903113343 | 69 | 126 | 0.0 | 2.0 | 0.00 | 0.52 | 0.16 | 95 | 1016.1 |
| 20260903113108 | 68 | 126 | 0.0 | 2.0 | 0.00 | 0.52 | 0.16 | 95 | 1015.7 |
| 20260903113045 | 68 | 0 | 0.0 | 2.0 | 0.00 | 0.52 | 0.16 | 95 | 1015.6 |
| 20260903112850 | 69 | 183 | 0.0 | 1.0 | 0.00 | 0.52 | 0.16 | 95 | 1016.0 |
| 20260903112341 | 69 | 290 | 0.0 | 1.0 | 0.00 | 0.52 | 0.16 | 95 | 1016.0 |
| 20260903111912 | 69 | 290 | 0.0 | 1.0 | 0.00 | 0.52 | 0.16 | 95 | 1016.0 |
| 20260903111619 | 68 | 290 | 0.0 | 0.0 | 0.00 | 0.52 | 0.16 | 95 | 1015.6 |
| 20260903111556 | 68 | 0 | 0.0 | 1.0 | 0.00 | 0.52 | 0.16 | 95 | 1015.5 |
| 20260903111341 | 69 | 290 | 0.0 | 1.0 | 0.00 | 0.52 | 0.16 | 95 | 1015.9 |
| 20260903110849 | 69 | 290 | 0.0 | 1.0 | 0.00 | 0.52 | 0.16 | 95 | 1016.0 |
| 20260903110341 | 69 | 290 | 0.0 | 1.0 | 0.00 | 0.52 | 0.16 | 95 | 1016.1 |
| 20260903110106 | 68 | 290 | 0.0 | 2.0 | 0.00 | 0.52 | 0.16 | 95 | 1015.7 |
| 20260903110050 | 68 | 0 | 0.0 | 2.0 | 0.00 | 0.52 | 0.16 | 95 | 1015.6 |
| 20260903105849 | 69 | 290 | 0.0 | 2.0 | 0.00 | 0.52 | 0.16 | 95 | 1016.1 |
| 20260903105340 | 69 | 290 | 0.0 | 1.0 | 0.00 | 0.52 | 0.16 | 95 | 1016.2 |
| 20260903104851 | 69 | 350 | 0.0 | 1.0 | 0.00 | 0.52 | 0.16 | 95 | 1016.0 |
| 20260903104618 | 68 | 338 | 0.0 | 1.0 | 0.00 | 0.52 | 0.16 | 95 | 1015.5 |
| 20260903104554 | 68 | 0 | 0.0 | 1.0 | 0.00 | 0.52 | 0.16 | 95 | 1015.3 |
| 20260903104340 | 69 | 236 | 0.0 | 1.0 | 0.00 | 0.52 | 0.16 | 95 | 1015.9 |
| 20260903103852 | 69 | 236 | 0.0 | 3.0 | 0.00 | 0.52 | 0.16 | 95 | 1016.0 |
| 20260903103404 | 69 | 229 | 2.0 | 5.0 | 0.00 | 0.52 | 0.16 | 95 | 1016.2 |
| 20260903103108 | 68 | 243 | 1.0 | 5.0 | 0.00 | 0.52 | 0.16 | 95 | 1015.8 |
| 20260903103056 | 68 | 0 | 1.0 | 6.0 | 0.00 | 0.52 | 0.16 | 95 | 1015.7 |
| 20260903102849 | 69 | 239 | 1.0 | 5.0 | 0.00 | 0.52 | 0.16 | 95 | 1016.2 |
| 20260903102340 | 69 | 238 | 2.0 | 5.0 | 0.00 | 0.52 | 0.16 | 95 | 1016.1 |
| 20260903101851 | 69 | 287 | 2.0 | 5.0 | 0.00 | 0.52 | 0.16 | 95 | 1016.0 |
| 20260903101618 | 69 | 263 | 2.0 | 3.0 | 0.00 | 0.52 | 0.16 | 95 | 1015.4 |
| 20260903101555 | 69 | 308 | 1.0 | 3.0 | 0.00 | 0.52 | 0.16 | 95 | 1015.3 |
| 20260903101344 | 69 | 248 | 1.0 | 3.0 | 0.00 | 0.52 | 0.16 | 95 | 1015.8 |
| 20260903100855 | 69 | 252 | 1.0 | 3.0 | 0.00 | 0.52 | 0.16 | 95 | 1015.8 |
| 20260903100345 | 69 | 253 | 1.0 | 2.0 | 0.00 | 0.52 | 0.16 | 95 | 1015.8 |
| 20260903100105 | 69 | 252 | 0.0 | 2.0 | 0.00 | 0.52 | 0.16 | 95 | 1015.3 |
| 20260903100053 | 69 | 0 | 0.0 | 2.0 | 0.00 | 0.52 | 0.16 | 95 | 1015.2 |
| 20260903095852 | 69 | 236 | 1.0 | 2.0 | 0.00 | 0.53 | 0.16 | 95 | 1015.7 |
| 20260903095341 | 69 | 260 | 1.0 | 2.0 | 0.00 | 0.53 | 0.16 | 95 | 1015.6 |
| 20260903094852 | 69 | 265 | 1.0 | 7.0 | 0.00 | 0.53 | 0.16 | 95 | 1015.6 |
| 20260903094616 | 69 | 209 | 0.0 | 7.0 | 0.00 | 0.53 | 0.16 | 95 | 1015.1 |
| 20260903094605 | 69 | 0 | 2.0 | 7.0 | 0.00 | 0.52 | 0.16 | 95 | 1015.0 |
| 20260903094343 | 69 | 240 | 3.0 | 7.0 | 0.00 | 0.53 | 0.16 | 95 | 1015.6 |
| 20260903093854 | 69 | 117 | 1.0 | 5.0 | 0.00 | 0.53 | 0.16 | 95 | 1015.3 |
| 20260903093347 | 69 | 228 | 3.0 | 5.0 | 0.00 | 0.53 | 0.16 | 95 | 1015.8 |
| 20260903093136 | 69 | 231 | 1.0 | 4.0 | 0.00 | 0.53 | 0.16 | 95 | 1015.2 |
| 20260903093055 | 69 | 228 | 1.0 | 4.0 | 0.00 | 0.52 | 0.16 | 95 | 1015.1 |
| 20260903092853 | 69 | 234 | 1.0 | 4.0 | 0.00 | 0.53 | 0.16 | 95 | 1015.5 |
| 20260903092344 | 69 | 217 | 0.0 | 4.0 | 0.00 | 0.53 | 0.16 | 95 | 1015.5 |
| 20260903091853 | 69 | 232 | 3.0 | 4.0 | 0.00 | 0.53 | 0.16 | 95 | 1015.6 |
| 20260903091603 | 68 | 251 | 2.0 | 3.0 | 0.00 | 0.53 | 0.16 | 95 | 1015.2 |
| 20260903091552 | 68 | 209 | 1.0 | 4.0 | 0.00 | 0.52 | 0.16 | 95 | 1015.0 |
| 20260903091404 | 69 | 209 | 1.0 | 4.0 | 0.00 | 0.53 | 0.16 | 95 | 1015.6 |
| 20260903090914 | 69 | 258 | 1.0 | 4.0 | 0.00 | 0.53 | 0.16 | 95 | 1015.6 |
| 20260903090405 | 68 | 235 | 1.0 | 3.0 | 0.00 | 0.53 | 0.16 | 95 | 1015.8 |
| 20260903090111 | 68 | 210 | 0.0 | 2.0 | 0.00 | 0.53 | 0.16 | 95 | 1015.2 |
| 20260903090057 | 68 | 0 | 0.0 | 2.0 | 0.00 | 0.52 | 0.16 | 95 | 1015.0 |
| 20260903085850 | 68 | 209 | 1.0 | 2.0 | 0.00 | 0.53 | 0.16 | 95 | 1015.4 |
| 20260903085341 | 68 | 115 | 0.0 | 1.0 | 0.00 | 0.53 | 0.16 | 95 | 1015.3 |
| 20260903084853 | 68 | 115 | 0.0 | 1.0 | 0.00 | 0.53 | 0.16 | 95 | 1015.4 |
| 20260903084601 | 68 | 115 | 0.0 | 1.0 | 0.00 | 0.53 | 0.16 | 95 | 1015.1 |
| 20260903084543 | 68 | 0 | 0.0 | 1.0 | 0.00 | 0.52 | 0.16 | 95 | 1014.9 |
| 20260903084404 | 68 | 115 | 0.0 | 1.0 | 0.00 | 0.53 | 0.16 | 95 | 1015.3 |
| 20260903083853 | 68 | 115 | 1.0 | 1.0 | 0.00 | 0.53 | 0.16 | 95 | 1015.4 |
| 20260903083346 | 68 | 76 | 0.0 | 2.0 | 0.00 | 0.53 | 0.16 | 95 | 1015.5 |
| 20260903083110 | 68 | 76 | 0.0 | 2.0 | 0.01 | 0.53 | 0.16 | 95 | 1015.4 |
| 20260903083101 | 68 | 76 | 0.0 | 2.0 | 0.01 | 0.52 | 0.16 | 95 | 1015.3 |
| 20260903082853 | 68 | 76 | 0.0 | 1.0 | 0.01 | 0.53 | 0.16 | 95 | 1015.9 |
| 20260903082344 | 68 | 76 | 0.0 | 1.0 | 0.01 | 0.53 | 0.16 | 95 | 1016.1 |
| 20260903081835 | 68 | 76 | 0.0 | 3.0 | 0.01 | 0.53 | 0.16 | 95 | 1016.2 |
| 20260903081606 | 67 | 76 | 0.0 | 3.0 | 0.01 | 0.53 | 0.16 | 95 | 1015.9 |
| 20260903081553 | 67 | 0 | 0.0 | 3.0 | 0.01 | 0.52 | 0.16 | 95 | 1015.8 |
| 20260903081347 | 68 | 76 | 0.0 | 3.0 | 0.01 | 0.53 | 0.16 | 95 | 1016.3 |
| 20260903080838 | 68 | 253 | 0.0 | 1.0 | 0.01 | 0.53 | 0.16 | 95 | 1016.4 |
| 20260903080349 | 68 | 253 | 0.0 | 1.0 | 0.02 | 0.53 | 0.16 | 95 | 1016.4 |
| 20260903080124 | 67 | 253 | 0.0 | 1.0 | 0.02 | 0.53 | 0.16 | 95 | 1016.1 |
| 20260903080051 | 67 | 0 | 0.0 | 1.0 | 0.02 | 0.52 | 0.16 | 95 | 1016.0 |
| 20260903075916 | 68 | 253 | 0.0 | 1.0 | 0.02 | 0.53 | 0.16 | 95 | 1016.4 |
| 20260903075407 | 68 | 253 | 0.0 | 1.0 | 0.02 | 0.53 | 0.16 | 95 | 1016.3 |
| 20260903074837 | 68 | 253 | 0.0 | 1.0 | 0.02 | 0.53 | 0.16 | 95 | 1016.1 |
| 20260903074633 | 67 | 253 | 0.0 | 1.0 | 0.02 | 0.53 | 0.16 | 95 | 1015.9 |
| 20260903074605 | 67 | 0 | 0.0 | 1.0 | 0.02 | 0.52 | 0.16 | 95 | 1015.8 |
| 20260903074407 | 68 | 253 | 0.0 | 1.0 | 0.02 | 0.53 | 0.16 | 95 | 1016.3 |
| 20260903073857 | 68 | 253 | 0.0 | 1.0 | 0.02 | 0.53 | 0.16 | 95 | 1016.3 |
| 20260903073349 | 68 | 253 | 0.0 | 1.0 | 0.01 | 0.52 | 0.15 | 95 | 1016.3 |
| 20260903073113 | 67 | 253 | 0.0 | 1.0 | 0.01 | 0.52 | 0.15 | 95 | 1016.0 |
| 20260903072856 | 68 | 253 | 0.0 | 1.0 | 0.01 | 0.52 | 0.15 | 95 | 1016.4 |
| 20260903072346 | 68 | 304 | 0.0 | 1.0 | 0.01 | 0.52 | 0.15 | 95 | 1016.4 |
| 20260903071855 | 68 | 304 | 0.0 | 1.0 | 0.01 | 0.52 | 0.15 | 95 | 1016.3 |
| 20260903071615 | 67 | 0 | 0.0 | 1.0 | 0.01 | 0.52 | 0.15 | 95 | 1015.8 |
| 20260903071612 | 67 | 304 | 0.0 | 1.0 | 0.01 | 0.52 | 0.15 | 95 | 1015.9 |
| 20260903071345 | 68 | 304 | 0.0 | 1.0 | 0.01 | 0.52 | 0.15 | 95 | 1016.3 |
| 20260903070836 | 68 | 304 | 0.0 | 0.0 | 0.00 | 0.51 | 0.14 | 95 | 1016.5 |
| 20260903070347 | 68 | 304 | 0.0 | 0.0 | 0.01 | 0.51 | 0.14 | 95 | 1016.6 |
| 20260903070117 | 67 | 304 | 0.0 | 0.0 | 0.01 | 0.51 | 0.14 | 95 | 1016.4 |
| 20260903070052 | 67 | 0 | 0.0 | 0.0 | 0.01 | 0.51 | 0.14 | 95 | 1016.3 |
| 20260903065853 | 68 | 304 | 0.0 | 0.0 | 0.01 | 0.51 | 0.14 | 95 | 1016.8 |
| 20260903065344 | 68 | 304 | 0.0 | 0.0 | 0.01 | 0.51 | 0.14 | 95 | 1016.8 |
| 20260903064837 | 68 | 304 | 0.0 | 1.0 | 0.01 | 0.51 | 0.14 | 95 | 1016.8 |
| 20260903064601 | 67 | 304 | 0.0 | 1.0 | 0.01 | 0.51 | 0.14 | 95 | 1016.5 |
| 20260903064542 | 67 | 0 | 0.0 | 1.0 | 0.01 | 0.51 | 0.14 | 95 | 1016.4 |
| 20260903064348 | 67 | 304 | 0.0 | 1.0 | 0.01 | 0.51 | 0.14 | 95 | 1016.8 |
| 20260903063839 | 68 | 304 | 0.0 | 0.0 | 0.01 | 0.51 | 0.14 | 95 | 1016.7 |
| 20260903063411 | 67 | 304 | 0.0 | 0.0 | 0.01 | 0.51 | 0.14 | 95 | 1016.7 |
| 20260903063111 | 67 | 304 | 0.0 | 0.0 | 0.02 | 0.51 | 0.14 | 95 | 1016.3 |
| 20260903063047 | 67 | 0 | 0.0 | 0.0 | 0.02 | 0.51 | 0.14 | 95 | 1016.2 |
| 20260903062838 | 67 | 304 | 0.0 | 0.0 | 0.02 | 0.51 | 0.14 | 95 | 1016.7 |
| 20260903062347 | 67 | 304 | 0.0 | 0.0 | 0.03 | 0.51 | 0.14 | 95 | 1016.8 |
| 20260903061854 | 68 | 304 | 0.0 | 0.0 | 0.04 | 0.51 | 0.14 | 95 | 1016.9 |
| 20260903061551 | 67 | 0 | 0.0 | 1.0 | 0.05 | 0.51 | 0.14 | 94 | 1016.6 |
| 20260903061508 | 67 | 304 | 0.0 | 1.0 | 0.05 | 0.51 | 0.14 | 95 | 1016.7 |
| 20260903061404 | 68 | 304 | 0.0 | 1.0 | 0.06 | 0.51 | 0.14 | 95 | 1017.1 |
| 20260903060853 | 68 | 304 | 0.0 | 1.0 | 0.08 | 0.51 | 0.14 | 95 | 1017.3 |
| 20260903060345 | 67 | 304 | 0.0 | 0.0 | 0.08 | 0.50 | 0.13 | 95 | 1017.5 |
| 20260903060111 | 67 | 0 | 0.0 | 1.0 | 0.09 | 0.50 | 0.13 | 94 | 1017.2 |
| 20260903060104 | 67 | 304 | 0.0 | 1.0 | 0.09 | 0.50 | 0.13 | 95 | 1017.3 |
| 20260903055911 | 67 | 304 | 0.0 | 1.0 | 0.10 | 0.50 | 0.13 | 95 | 1017.6 |
| 20260903055338 | 67 | 304 | 0.0 | 1.0 | 0.11 | 0.50 | 0.13 | 95 | 1017.6 |
| 20260903054849 | 67 | 304 | 1.0 | 3.0 | 0.11 | 0.50 | 0.13 | 95 | 1017.5 |
| 20260903054613 | 67 | 304 | 0.0 | 4.0 | 0.11 | 0.50 | 0.13 | 95 | 1017.3 |
| 20260903054544 | 67 | 0 | 0.0 | 4.0 | 0.11 | 0.50 | 0.13 | 94 | 1017.1 |
| 20260903054340 | 67 | 304 | 0.0 | 4.0 | 0.11 | 0.50 | 0.13 | 95 | 1017.5 |
| 20260903053850 | 67 | 261 | 1.0 | 4.0 | 0.12 | 0.50 | 0.13 | 95 | 1017.2 |
| 20260903053342 | 67 | 159 | 1.0 | 4.0 | 0.12 | 0.50 | 0.13 | 95 | 1017.2 |
| 20260903053106 | 67 | 196 | 0.0 | 1.0 | 0.11 | 0.49 | 0.12 | 95 | 1017.3 |
| 20260903053053 | 67 | 0 | 0.0 | 1.0 | 0.11 | 0.49 | 0.12 | 94 | 1017.3 |
| 20260903052850 | 67 | 196 | 0.0 | 0.0 | 0.11 | 0.49 | 0.12 | 95 | 1017.7 |
| 20260903052340 | 67 | 196 | 0.0 | 1.0 | 0.10 | 0.48 | 0.11 | 95 | 1017.8 |
| 20260903051849 | 67 | 196 | 0.0 | 1.0 | 0.09 | 0.47 | 0.10 | 95 | 1018.3 |
| 20260903051617 | 67 | 196 | 0.0 | 2.0 | 0.08 | 0.46 | 0.09 | 95 | 1018.1 |
| 20260903051607 | 67 | 0 | 0.0 | 2.0 | 0.08 | 0.46 | 0.09 | 94 | 1018.2 |
| 20260903051339 | 68 | 197 | 0.0 | 2.0 | 0.07 | 0.45 | 0.08 | 95 | 1018.6 |
| 20260903050848 | 68 | 197 | 1.0 | 3.0 | 0.05 | 0.43 | 0.06 | 95 | 1019.0 |
| 20260903050340 | 67 | 215 | 1.0 | 3.0 | 0.03 | 0.41 | 0.04 | 95 | 1019.5 |
| 20260903050105 | 67 | 244 | 1.0 | 3.0 | 0.04 | 0.41 | 0.04 | 95 | 1019.2 |
| 20260903050050 | 67 | 271 | 1.0 | 3.0 | 0.04 | 0.41 | 0.04 | 94 | 1019.2 |
| 20260903045847 | 67 | 217 | 1.0 | 2.0 | 0.03 | 0.40 | 0.03 | 95 | 1019.5 |
| 20260903045338 | 67 | 280 | 1.0 | 2.0 | 0.02 | 0.39 | 0.02 | 95 | 1019.4 |
| 20260903044909 | 67 | 280 | 0.0 | 0.0 | 0.02 | 0.39 | 0.02 | 95 | 1019.1 |
| 20260903044617 | 67 | 279 | 0.0 | 0.0 | 0.02 | 0.39 | 0.02 | 95 | 1018.5 |
| 20260903044556 | 67 | 0 | 0.0 | 1.0 | 0.02 | 0.39 | 0.02 | 94 | 1018.6 |
| 20260903044359 | 67 | 280 | 0.0 | 1.0 | 0.02 | 0.39 | 0.02 | 95 | 1018.9 |
| 20260903043910 | 67 | 279 | 0.0 | 2.0 | 0.01 | 0.38 | 0.01 | 95 | 1019.0 |
| 20260903043359 | 67 | 280 | 1.0 | 2.0 | 0.01 | 0.38 | 0.01 | 95 | 1019.0 |
| 20260903043103 | 67 | 280 | 0.0 | 1.0 | 0.01 | 0.38 | 0.01 | 95 | 1018.6 |
| 20260903043051 | 67 | 0 | 0.0 | 2.0 | 0.01 | 0.38 | 0.01 | 94 | 1018.6 |
| 20260903042845 | 67 | 280 | 0.0 | 2.0 | 0.01 | 0.38 | 0.01 | 95 | 1018.9 |
| 20260903042354 | 67 | 279 | 1.0 | 2.0 | 0.01 | 0.38 | 0.01 | 95 | 1018.9 |
| 20260903041845 | 67 | 280 | 0.0 | 0.0 | 0.01 | 0.38 | 0.01 | 95 | 1018.7 |
| 20260903041616 | 67 | 280 | 0.0 | 0.0 | 0.01 | 0.38 | 0.01 | 95 | 1018.3 |
| 20260903041556 | 67 | 0 | 0.0 | 0.0 | 0.01 | 0.38 | 0.01 | 95 | 1018.4 |
| 20260903041355 | 67 | 279 | 0.0 | 0.0 | 0.01 | 0.38 | 0.01 | 95 | 1018.8 |
| 20260903040845 | 67 | 280 | 0.0 | 0.0 | 0.01 | 0.38 | 0.01 | 95 | 1019.0 |
| 20260903040356 | 67 | 280 | 0.0 | 0.0 | 0.01 | 0.38 | 0.01 | 95 | 1019.1 |
| 20260903040103 | 67 | 0 | 0.0 | 1.0 | 0.00 | 0.37 | 0.00 | 94 | 1018.9 |
| 20260903035844 | 67 | 280 | 0.0 | 1.0 | 0.00 | 0.37 | 0.37 | 95 | 1019.2 |
| 20260903035354 | 67 | 279 | 0.0 | 1.0 | 0.00 | 0.37 | 0.37 | 95 | 1019.1 |
| 20260903034844 | 67 | 279 | 0.0 | 0.0 | 0.00 | 0.37 | 0.37 | 95 | 1019.2 |
| 20260903034612 | 67 | 279 | 0.0 | 0.0 | 0.00 | 0.37 | 0.37 | 95 | 1019.0 |
| 20260903034551 | 67 | 0 | 0.0 | 1.0 | 0.00 | 0.37 | 0.37 | 94 | 1019.0 |
| 20260903034354 | 67 | 280 | 0.0 | 1.0 | 0.00 | 0.37 | 0.37 | 95 | 1019.3 |
| 20260903033845 | 67 | 279 | 0.0 | 1.0 | 0.00 | 0.37 | 0.37 | 95 | 1019.3 |
| 20260903033340 | 67 | 280 | 0.0 | 1.0 | 0.00 | 0.37 | 0.37 | 95 | 1019.1 |
| 20260903033125 | 66 | 280 | 0.0 | 1.0 | 0.00 | 0.37 | 0.37 | 95 | 1018.7 |
| 20260903033051 | 66 | 280 | 0.0 | 1.0 | 0.00 | 0.37 | 0.37 | 94 | 1018.7 |
| 20260903032847 | 67 | 280 | 0.0 | 0.0 | 0.00 | 0.37 | 0.37 | 95 | 1018.9 |
| 20260903032356 | 67 | 279 | 0.0 | 1.0 | 0.00 | 0.37 | 0.37 | 95 | 1018.7 |
| 20260903031845 | 67 | 279 | 0.0 | 1.0 | 0.00 | 0.37 | 0.37 | 95 | 1018.8 |
| 20260903031635 | 66 | 280 | 0.0 | 1.0 | 0.00 | 0.37 | 0.37 | 95 | 1018.5 |
| 20260903031556 | 66 | 0 | 0.0 | 1.0 | 0.00 | 0.37 | 0.37 | 94 | 1018.5 |
| 20260903031412 | 67 | 279 | 0.0 | 1.0 | 0.00 | 0.37 | 0.37 | 95 | 1018.8 |
| 20260903030845 | 67 | 280 | 0.0 | 0.0 | 0.00 | 0.37 | 0.37 | 95 | 1018.8 |
| 20260903030411 | 67 | 280 | 0.0 | 0.0 | 0.00 | 0.37 | 0.37 | 95 | 1019.0 |
| 20260903030114 | 66 | 280 | 0.0 | 0.0 | 0.00 | 0.37 | 0.37 | 95 | 1018.7 |
| 20260903030054 | 66 | 0 | 0.0 | 0.0 | 0.00 | 0.37 | 0.37 | 94 | 1018.8 |
| 20260903025841 | 67 | 280 | 0.0 | 0.0 | 0.00 | 0.37 | 0.37 | 95 | 1019.1 |
| 20260903025353 | 67 | 280 | 0.0 | 0.0 | 0.00 | 0.37 | 0.37 | 95 | 1019.3 |
| 20260903024903 | 67 | 280 | 0.0 | 0.0 | 0.00 | 0.37 | 0.37 | 95 | 1019.3 |
| 20260903024608 | 66 | 279 | 0.0 | 0.0 | 0.00 | 0.37 | 0.37 | 95 | 1018.9 |
| 20260903024552 | 66 | 0 | 0.0 | 0.0 | 0.00 | 0.37 | 0.37 | 94 | 1018.9 |
| 20260903024353 | 67 | 280 | 0.0 | 0.0 | 0.00 | 0.37 | 0.37 | 95 | 1019.3 |
| 20260903023843 | 66 | 280 | 0.0 | 0.0 | 0.00 | 0.37 | 0.37 | 95 | 1019.4 |
| 20260903023355 | 66 | 280 | 0.0 | 0.0 | 0.00 | 0.37 | 0.37 | 95 | 1019.2 |
| 20260903023116 | 66 | 280 | 0.0 | 0.0 | 0.00 | 0.37 | 0.37 | 95 | 1019.1 |
| 20260903023057 | 66 | 0 | 0.0 | 0.0 | 0.00 | 0.37 | 0.37 | 94 | 1019.1 |
| 20260903022841 | 66 | 280 | 0.0 | 0.0 | 0.00 | 0.37 | 0.37 | 95 | 1019.5 |
| 20260903022353 | 66 | 279 | 0.0 | 0.0 | 0.00 | 0.37 | 0.37 | 95 | 1019.3 |
| 20260903021842 | 66 | 280 | 0.0 | 0.0 | 0.00 | 0.37 | 0.37 | 95 | 1019.4 |
| 20260903021607 | 66 | 280 | 0.0 | 1.0 | 0.00 | 0.37 | 0.37 | 95 | 1019.2 |
| 20260903021603 | 66 | 0 | 0.0 | 1.0 | 0.00 | 0.37 | 0.37 | 94 | 1019.3 |
| 20260903021352 | 66 | 280 | 0.0 | 1.0 | 0.00 | 0.37 | 0.37 | 95 | 1019.6 |
| 20260903020841 | 66 | 280 | 0.0 | 1.0 | 0.00 | 0.37 | 0.37 | 95 | 1019.7 |
| 20260903020352 | 66 | 280 | 0.0 | 1.0 | 0.00 | 0.37 | 0.37 | 95 | 1019.7 |
| 20260903020118 | 66 | 280 | 0.0 | 0.0 | 0.00 | 0.37 | 0.37 | 95 | 1019.3 |
| 20260903020044 | 66 | 0 | 0.0 | 1.0 | 0.00 | 0.37 | 0.37 | 94 | 1019.3 |
| 20260903015840 | 66 | 279 | 0.0 | 1.0 | 0.00 | 0.37 | 0.37 | 95 | 1019.6 |
| 20260903015350 | 66 | 279 | 0.0 | 1.0 | 0.00 | 0.37 | 0.37 | 95 | 1019.5 |
| 20260903014839 | 66 | 279 | 0.0 | 1.0 | 0.00 | 0.37 | 0.37 | 95 | 1019.4 |
| 20260903014604 | 66 | 0 | 0.0 | 1.0 | 0.00 | 0.37 | 0.37 | 94 | 1019.2 |
| 20260903014350 | 66 | 279 | 0.0 | 1.0 | 0.00 | 0.37 | 0.37 | 95 | 1019.5 |
| 20260903013839 | 66 | 279 | 0.0 | 1.0 | 0.00 | 0.37 | 0.37 | 95 | 1019.6 |
| 20260903013350 | 66 | 279 | 0.0 | 0.0 | 0.00 | 0.37 | 0.37 | 95 | 1019.6 |
| 20260903013115 | 66 | 279 | 0.0 | 0.0 | 0.00 | 0.37 | 0.37 | 95 | 1019.2 |
| 20260903013055 | 66 | 0 | 0.0 | 0.0 | 0.00 | 0.37 | 0.37 | 94 | 1019.3 |
| 20260903012838 | 66 | 279 | 0.0 | 0.0 | 0.00 | 0.37 | 0.37 | 95 | 1019.7 |
| 20260903012349 | 66 | 279 | 0.0 | 0.0 | 0.00 | 0.37 | 0.37 | 95 | 1019.9 |
| 20260903011839 | 66 | 279 | 0.0 | 0.0 | 0.00 | 0.37 | 0.37 | 95 | 1019.9 |
| 20260903011607 | 66 | 279 | 0.0 | 0.0 | 0.00 | 0.37 | 0.37 | 95 | 1019.6 |
| 20260903011554 | 65 | 0 | 0.0 | 1.0 | 0.00 | 0.37 | 0.37 | 94 | 1019.5 |
| 20260903011350 | 66 | 279 | 0.0 | 1.0 | 0.00 | 0.37 | 0.37 | 95 | 1019.9 |
| 20260903010839 | 66 | 279 | 0.0 | 1.0 | 0.00 | 0.37 | 0.37 | 95 | 1020.1 |
| 20260903010351 | 66 | 279 | 0.0 | 0.0 | 0.00 | 0.37 | 0.37 | 95 | 1020.1 |
| 20260903010116 | 65 | 279 | 0.0 | 0.0 | 0.00 | 0.37 | 0.37 | 95 | 1019.6 |
| 20260903010047 | 65 | 0 | 0.0 | 0.0 | 0.00 | 0.37 | 0.37 | 94 | 1019.7 |
| 20260903005838 | 66 | 280 | 0.0 | 0.0 | 0.00 | 0.37 | 0.37 | 95 | 1020.1 |
| 20260903005349 | 66 | 279 | 0.0 | 0.0 | 0.00 | 0.37 | 0.37 | 95 | 1019.9 |
| 20260903004840 | 66 | 279 | 0.0 | 0.0 | 0.00 | 0.37 | 0.37 | 95 | 1020.0 |
| 20260903004609 | 65 | 279 | 0.0 | 0.0 | 0.00 | 0.37 | 0.37 | 95 | 1019.7 |
| 20260903004553 | 65 | 0 | 0.0 | 0.0 | 0.00 | 0.37 | 0.37 | 94 | 1019.7 |
| 20260903004351 | 66 | 280 | 0.0 | 0.0 | 0.00 | 0.37 | 0.37 | 95 | 1020.2 |
| 20260903003846 | 66 | 279 | 0.0 | 0.0 | 0.00 | 0.37 | 0.37 | 95 | 1020.2 |
| 20260903003357 | 66 | 280 | 0.0 | 2.0 | 0.00 | 0.37 | 0.37 | 95 | 1020.4 |
| 20260903003051 | 65 | 0 | 0.0 | 2.0 | 0.00 | 0.37 | 0.37 | 94 | 1020.1 |
| 20260903003005 | 65 | 279 | 0.0 | 2.0 | 0.00 | 0.37 | 0.37 | 95 | 1020.0 |
| 20260903002904 | 66 | 279 | 0.0 | 1.0 | 0.00 | 0.37 | 0.37 | 95 | 1020.3 |
| 20260903002355 | 66 | 279 | 0.0 | 0.0 | 0.00 | 0.37 | 0.37 | 95 | 1020.0 |
| 20260903001845 | 66 | 280 | 0.0 | 1.0 | 0.00 | 0.37 | 0.37 | 94 | 1019.9 |
| 20260903001609 | 65 | 279 | 0.0 | 2.0 | 0.00 | 0.37 | 0.37 | 94 | 1019.5 |
| 20260903001602 | 65 | 0 | 0.0 | 2.0 | 0.00 | 0.37 | 0.37 | 94 | 1019.5 |
| 20260903001335 | 66 | 279 | 0.0 | 2.0 | 0.00 | 0.37 | 0.37 | 94 | 1019.7 |
| 20260903000846 | 66 | 279 | 1.0 | 3.0 | 0.00 | 0.37 | 0.37 | 94 | 1019.5 |
| 20260903000358 | 66 | 221 | 0.0 | 3.0 | 0.00 | 0.37 | 0.37 | 95 | 1019.4 |
| 20260903000119 | 66 | 145 | 0.0 | 3.0 | 0.00 | 0.37 | 0.37 | 95 | 1018.9 |
| 20260903000051 | 66 | 163 | 0.0 | 2.0 | 0.00 | 0.37 | 0.37 | 94 | 1018.9 |
| 20260902235843 | 66 | 175 | 0.0 | 2.0 | 0.00 | 0.37 | 0.37 | 95 | 1019.2 |
| 20260902235354 | 66 | 173 | 1.0 | 2.0 | 0.00 | 0.37 | 0.37 | 95 | 1019.1 |
| 20260902234844 | 66 | 298 | 0.0 | 1.0 | 0.00 | 0.37 | 0.37 | 95 | 1019.4 |
| 20260902234612 | 66 | 0 | 0.0 | 1.0 | 0.00 | 0.37 | 0.37 | 94 | 1019.2 |
| 20260902234354 | 66 | 298 | 0.0 | 1.0 | 0.00 | 0.37 | 0.37 | 95 | 1019.4 |
| 20260902233905 | 66 | 298 | 0.0 | 1.0 | 0.00 | 0.37 | 0.37 | 95 | 1019.3 |
| 20260902233355 | 66 | 320 | 0.0 | 1.0 | 0.00 | 0.37 | 0.37 | 95 | 1019.4 |
| 20260902233121 | 66 | 319 | 0.0 | 0.0 | 0.00 | 0.37 | 0.37 | 95 | 1019.2 |
| 20260902233049 | 66 | 0 | 0.0 | 0.0 | 0.00 | 0.37 | 0.37 | 94 | 1019.1 |
| 20260902232842 | 66 | 327 | 0.0 | 0.0 | 0.00 | 0.37 | 0.37 | 95 | 1019.5 |
| 20260902232352 | 66 | 327 | 0.0 | 0.0 | 0.00 | 0.37 | 0.37 | 95 | 1019.5 |
| 20260902231841 | 66 | 327 | 0.0 | 0.0 | 0.00 | 0.37 | 0.37 | 95 | 1019.6 |
| 20260902231611 | 66 | 327 | 0.0 | 1.0 | 0.00 | 0.37 | 0.37 | 94 | 1019.4 |
| 20260902231545 | 66 | 0 | 0.0 | 1.0 | 0.00 | 0.37 | 0.37 | 94 | 1019.5 |
| 20260902231413 | 66 | 327 | 0.0 | 1.0 | 0.00 | 0.37 | 0.37 | 95 | 1019.8 |
| 20260902230902 | 66 | 327 | 0.0 | 1.0 | 0.00 | 0.37 | 0.37 | 94 | 1019.9 |
| 20260902230352 | 66 | 33 | 0.0 | 1.0 | 0.00 | 0.37 | 0.37 | 94 | 1020.0 |
| 20260902230117 | 66 | 33 | 0.0 | 1.0 | 0.00 | 0.37 | 0.37 | 94 | 1019.7 |
| 20260902230106 | 66 | 0 | 0.0 | 1.0 | 0.00 | 0.37 | 0.37 | 94 | 1019.8 |
| 20260902225900 | 66 | 33 | 0.0 | 1.0 | 0.00 | 0.37 | 0.37 | 94 | 1020.1 |
| 20260902225349 | 67 | 70 | 0.0 | 0.0 | 0.00 | 0.37 | 0.37 | 94 | 1020.1 |
| 20260902224839 | 66 | 70 | 0.0 | 1.0 | 0.00 | 0.37 | 0.37 | 94 | 1020.2 |
| 20260902224609 | 66 | 70 | 0.0 | 1.0 | 0.00 | 0.37 | 0.37 | 94 | 1019.9 |
| 20260902224551 | 66 | 0 | 0.0 | 1.0 | 0.00 | 0.37 | 0.37 | 94 | 1019.8 |
| 20260902224350 | 66 | 70 | 0.0 | 1.0 | 0.00 | 0.37 | 0.37 | 94 | 1020.3 |
| 20260902223900 | 66 | 70 | 0.0 | 1.0 | 0.00 | 0.37 | 0.37 | 94 | 1020.3 |
| 20260902223412 | 66 | 70 | 0.0 | 2.0 | 0.00 | 0.37 | 0.37 | 94 | 1020.5 |
| 20260902223116 | 66 | 70 | 0.0 | 2.0 | 0.00 | 0.37 | 0.37 | 94 | 1020.1 |
| 20260902223048 | 66 | 0 | 0.0 | 2.0 | 0.00 | 0.37 | 0.37 | 94 | 1020.0 |
| 20260902222837 | 66 | 48 | 0.0 | 2.0 | 0.00 | 0.37 | 0.37 | 94 | 1020.5 |
| 20260902222409 | 66 | 220 | 0.0 | 0.0 | 0.00 | 0.37 | 0.37 | 94 | 1020.6 |
| 20260902221838 | 66 | 220 | 0.0 | 1.0 | 0.00 | 0.37 | 0.37 | 94 | 1020.8 |
| 20260902221606 | 66 | 220 | 0.0 | 1.0 | 0.00 | 0.37 | 0.37 | 94 | 1020.5 |
| 20260902221547 | 66 | 0 | 0.0 | 1.0 | 0.00 | 0.37 | 0.37 | 94 | 1020.4 |
| 20260902221347 | 66 | 220 | 0.0 | 1.0 | 0.00 | 0.37 | 0.37 | 94 | 1020.9 |
| 20260902220837 | 66 | 220 | 0.0 | 2.0 | 0.00 | 0.37 | 0.37 | 94 | 1021.0 |
| 20260902220350 | 66 | 220 | 0.0 | 2.0 | 0.00 | 0.37 | 0.37 | 94 | 1020.9 |
| 20260902220115 | 66 | 220 | 0.0 | 2.0 | 0.00 | 0.37 | 0.37 | 94 | 1020.5 |
| 20260902220046 | 66 | 0 | 0.0 | 2.0 | 0.00 | 0.37 | 0.37 | 94 | 1020.4 |
| 20260902215837 | 66 | 192 | 0.0 | 0.0 | 0.00 | 0.37 | 0.37 | 94 | 1020.8 |
| 20260902215348 | 66 | 192 | 0.0 | 2.0 | 0.00 | 0.37 | 0.37 | 94 | 1020.7 |
| 20260902214839 | 66 | 192 | 0.0 | 2.0 | 0.00 | 0.37 | 0.37 | 94 | 1020.8 |
| 20260902214608 | 66 | 150 | 0.0 | 1.0 | 0.00 | 0.37 | 0.37 | 94 | 1020.4 |
| 20260902214603 | 66 | 0 | 0.0 | 1.0 | 0.00 | 0.37 | 0.37 | 94 | 1020.4 |
| 20260902214349 | 66 | 144 | 0.0 | 1.0 | 0.00 | 0.37 | 0.37 | 94 | 1020.7 |
| 20260902213839 | 66 | 167 | 0.0 | 2.0 | 0.00 | 0.37 | 0.37 | 94 | 1020.5 |
| 20260902213350 | 66 | 178 | 0.0 | 2.0 | 0.00 | 0.37 | 0.37 | 94 | 1020.6 |
| 20260902213114 | 66 | 178 | 0.0 | 2.0 | 0.00 | 0.37 | 0.37 | 94 | 1020.3 |
| 20260902213052 | 66 | 178 | 0.0 | 2.0 | 0.00 | 0.37 | 0.37 | 94 | 1020.1 |
| 20260902212837 | 66 | 164 | 0.0 | 1.0 | 0.00 | 0.37 | 0.37 | 94 | 1020.6 |
| 20260902212349 | 66 | 217 | 0.0 | 1.0 | 0.00 | 0.37 | 0.37 | 94 | 1020.5 |
| 20260902211840 | 66 | 168 | 0.0 | 2.0 | 0.00 | 0.37 | 0.37 | 94 | 1020.5 |
| 20260902211608 | 66 | 168 | 0.0 | 2.0 | 0.00 | 0.37 | 0.37 | 94 | 1020.0 |
| 20260902211548 | 66 | 0 | 0.0 | 2.0 | 0.00 | 0.37 | 0.37 | 94 | 1020.0 |
| 20260902211350 | 66 | 168 | 0.0 | 2.0 | 0.00 | 0.37 | 0.37 | 94 | 1020.4 |
| 20260902210844 | 66 | 175 | 0.0 | 1.0 | 0.00 | 0.37 | 0.37 | 94 | 1020.5 |
| 20260902210412 | 66 | 175 | 0.0 | 1.0 | 0.00 | 0.37 | 0.37 | 94 | 1020.5 |
| 20260902210114 | 66 | 175 | 0.0 | 1.0 | 0.00 | 0.37 | 0.37 | 94 | 1020.2 |
| 20260902210044 | 66 | 0 | 0.0 | 1.0 | 0.00 | 0.37 | 0.37 | 94 | 1020.2 |
| 20260902205841 | 66 | 173 | 0.0 | 1.0 | 0.00 | 0.37 | 0.37 | 94 | 1020.6 |
| 20260902205352 | 66 | 173 | 0.0 | 2.0 | 0.00 | 0.37 | 0.37 | 94 | 1020.6 |
| 20260902204842 | 66 | 200 | 0.0 | 2.0 | 0.00 | 0.37 | 0.37 | 94 | 1020.7 |
| 20260902204607 | 66 | 178 | 0.0 | 2.0 | 0.00 | 0.37 | 0.37 | 94 | 1020.3 |
| 20260902204555 | 66 | 244 | 0.0 | 2.0 | 0.00 | 0.37 | 0.37 | 93 | 1020.2 |
| 20260902204352 | 66 | 176 | 0.0 | 2.0 | 0.00 | 0.37 | 0.37 | 94 | 1020.6 |
| 20260902203841 | 66 | 197 | 0.0 | 4.0 | 0.00 | 0.37 | 0.37 | 94 | 1020.4 |
| 20260902203353 | 66 | 181 | 0.0 | 4.0 | 0.00 | 0.37 | 0.37 | 94 | 1020.3 |
| 20260902203128 | 66 | 181 | 2.0 | 4.0 | 0.00 | 0.37 | 0.37 | 94 | 1019.9 |
| 20260902203052 | 66 | 157 | 1.0 | 5.0 | 0.00 | 0.37 | 0.37 | 93 | 1019.9 |
| 20260902202841 | 66 | 157 | 0.0 | 4.0 | 0.00 | 0.37 | 0.37 | 94 | 1020.4 |
| 20260902202352 | 66 | 193 | 1.0 | 3.0 | 0.00 | 0.37 | 0.37 | 94 | 1020.3 |
| 20260902201841 | 66 | 161 | 0.0 | 3.0 | 0.00 | 0.37 | 0.37 | 94 | 1020.4 |
| 20260902201615 | 66 | 161 | 0.0 | 3.0 | 0.00 | 0.37 | 0.37 | 94 | 1020.0 |
| 20260902201544 | 66 | 0 | 0.0 | 4.0 | 0.00 | 0.37 | 0.37 | 93 | 1019.9 |
| 20260902201352 | 67 | 360 | 1.0 | 4.0 | 0.01 | 0.37 | 0.37 | 94 | 1020.4 |
| 20260902200842 | 67 | 274 | 1.0 | 4.0 | 0.03 | 0.37 | 0.37 | 94 | 1020.3 |
| 20260902200354 | 67 | 183 | 1.0 | 2.0 | 0.04 | 0.37 | 0.37 | 94 | 1020.4 |
| 20260902200057 | 66 | 5 | 0.0 | 3.0 | 0.04 | 0.37 | 0.37 | 93 | 1020.1 |
| 20260902200006 | 66 | 5 | 0.0 | 2.0 | 0.05 | 0.37 | 0.37 | 94 | 1020.1 |
| 20260902195900 | 67 | 5 | 1.0 | 3.0 | 0.05 | 0.37 | 0.37 | 94 | 1020.5 |
| 20260902195412 | 67 | 100 | 0.0 | 3.0 | 0.06 | 0.37 | 0.37 | 94 | 1020.4 |
| 20260902194900 | 67 | 142 | 1.0 | 3.0 | 0.12 | 0.37 | 0.37 | 94 | 1020.3 |
| 20260902194607 | 66 | 189 | 1.0 | 3.0 | 0.15 | 0.37 | 0.37 | 93 | 1020.0 |
| 20260902194553 | 66 | 144 | 0.0 | 4.0 | 0.15 | 0.37 | 0.37 | 93 | 1020.0 |
| 20260902194350 | 67 | 137 | 0.0 | 3.0 | 0.16 | 0.37 | 0.37 | 93 | 1020.4 |
| 20260902193839 | 66 | 275 | 0.0 | 2.0 | 0.18 | 0.37 | 0.37 | 93 | 1020.6 |
| 20260902193410 | 66 | 220 | 0.0 | 2.0 | 0.35 | 0.37 | 0.37 | 93 | 1020.6 |
| 20260902193115 | 66 | 220 | 0.0 | 2.0 | 0.36 | 0.37 | 0.37 | 93 | 1020.3 |
| 20260902193047 | 66 | 0 | 0.0 | 2.0 | 0.36 | 0.37 | 0.37 | 93 | 1020.3 |
| 20260902192837 | 67 | 220 | 1.0 | 2.0 | 0.36 | 0.37 | 0.37 | 93 | 1020.8 |
| 20260902192346 | 67 | 220 | 1.0 | 2.0 | 0.36 | 0.37 | 0.37 | 93 | 1020.8 |
| 20260902191856 | 67 | 318 | 0.0 | 2.0 | 0.36 | 0.37 | 0.37 | 93 | 1021.0 |
| 20260902191605 | 66 | 318 | 0.0 | 2.0 | 0.36 | 0.37 | 0.37 | 93 | 1020.6 |
| 20260902191545 | 66 | 0 | 0.0 | 2.0 | 0.35 | 0.36 | 0.36 | 92 | 1020.6 |
| 20260902191346 | 67 | 318 | 0.0 | 2.0 | 0.35 | 0.36 | 0.36 | 93 | 1021.0 |
| 20260902190857 | 67 | 198 | 0.0 | 2.0 | 0.33 | 0.34 | 0.34 | 93 | 1021.0 |
| 20260902190409 | 67 | 198 | 0.0 | 2.0 | 0.32 | 0.33 | 0.33 | 93 | 1021.1 |
| 20260902190113 | 66 | 198 | 0.0 | 3.0 | 0.32 | 0.33 | 0.33 | 93 | 1020.7 |
| 20260902190056 | 66 | 0 | 0.0 | 3.0 | 0.31 | 0.32 | 0.32 | 92 | 1020.6 |
| 20260902185855 | 67 | 175 | 1.0 | 3.0 | 0.31 | 0.32 | 0.32 | 92 | 1021.1 |
| 20260902185345 | 67 | 311 | 2.0 | 4.0 | 0.29 | 0.30 | 0.30 | 92 | 1021.5 |
| 20260902184853 | 67 | 67 | 1.0 | 4.0 | 0.23 | 0.24 | 0.24 | 92 | 1021.3 |
| 20260902184605 | 67 | 41 | 1.0 | 6.0 | 0.21 | 0.22 | 0.22 | 92 | 1021.3 |
| 20260902184550 | 67 | 27 | 1.0 | 10.0 | 0.21 | 0.22 | 0.22 | 91 | 1021.4 |
| 20260902184406 | 68 | 313 | 2.0 | 10.0 | 0.20 | 0.21 | 0.21 | 91 | 1022.0 |
| 20260902183835 | 68 | 76 | 3.0 | 10.0 | 0.16 | 0.17 | 0.17 | 91 | 1021.8 |
| 20260902183346 | 68 | 292 | 3.0 | 7.0 | 0.00 | 0.01 | 0.01 | 90 | 1022.2 |
| 20260902183127 | 68 | 300 | 2.0 | 4.0 | 0.00 | 0.01 | 0.01 | 90 | 1021.5 |
| 20260902183051 | 68 | 308 | 2.0 | 4.0 | 0.00 | 0.01 | 0.01 | 89 | 1021.5 |
| 20260902182852 | 68 | 314 | 2.0 | 4.0 | 0.00 | 0.01 | 0.01 | 90 | 1021.6 |
| 20260902182341 | 68 | 280 | 2.0 | 3.0 | 0.00 | 0.01 | 0.01 | 90 | 1021.1 |
| 20260902181850 | 68 | 319 | 1.0 | 7.0 | 0.00 | 0.01 | 0.01 | 91 | 1020.8 |
| 20260902181618 | 68 | 141 | 0.0 | 7.0 | 0.00 | 0.01 | 0.01 | 91 | 1020.4 |
| 20260902181552 | 68 | 0 | 1.0 | 7.0 | 0.00 | 0.01 | 0.01 | 90 | 1020.4 |
| 20260902181340 | 69 | 125 | 3.0 | 7.0 | 0.00 | 0.01 | 0.01 | 91 | 1020.8 |
| 20260902180849 | 69 | 196 | 0.0 | 1.0 | 0.00 | 0.01 | 0.01 | 90 | 1020.8 |
| 20260902180400 | 69 | 196 | 0.0 | 3.0 | 0.00 | 0.01 | 0.01 | 90 | 1020.9 |
| 20260902180105 | 68 | 196 | 0.0 | 3.0 | 0.00 | 0.01 | 0.01 | 90 | 1020.6 |
| 20260902175907 | 69 | 196 | 0.0 | 3.0 | 0.00 | 0.01 | 0.01 | 90 | 1021.0 |
| 20260902175353 | 69 | 141 | 1.0 | 3.0 | 0.00 | 0.01 | 0.01 | 90 | 1021.1 |
| 20260902174843 | 69 | 221 | 1.0 | 3.0 | 0.00 | 0.01 | 0.01 | 90 | 1021.1 |
| 20260902174610 | 69 | 193 | 0.0 | 3.0 | 0.00 | 0.01 | 0.01 | 90 | 1020.7 |
| 20260902174601 | 69 | 257 | 0.0 | 6.0 | 0.00 | 0.01 | 0.01 | 89 | 1020.6 |
| 20260902174351 | 69 | 101 | 1.0 | 6.0 | 0.00 | 0.01 | 0.01 | 90 | 1021.1 |
| 20260902173843 | 69 | 87 | 1.0 | 6.0 | 0.00 | 0.01 | 0.01 | 90 | 1021.2 |
| 20260902173353 | 69 | 32 | 1.0 | 4.0 | 0.00 | 0.01 | 0.01 | 90 | 1021.1 |
| 20260902173121 | 69 | 88 | 2.0 | 4.0 | 0.00 | 0.01 | 0.01 | 91 | 1020.7 |
| 20260902173103 | 69 | 196 | 0.0 | 6.0 | 0.00 | 0.01 | 0.01 | 90 | 1020.6 |
| 20260902172840 | 69 | 154 | 0.0 | 6.0 | 0.00 | 0.01 | 0.01 | 90 | 1021.2 |
| 20260902172351 | 69 | 130 | 1.0 | 6.0 | 0.00 | 0.01 | 0.01 | 90 | 1021.1 |
| 20260902171841 | 69 | 247 | 0.0 | 1.0 | 0.00 | 0.01 | 0.01 | 91 | 1021.1 |
| 20260902171610 | 68 | 213 | 0.0 | 1.0 | 0.00 | 0.01 | 0.01 | 91 | 1020.6 |
| 20260902171604 | 68 | 243 | 0.0 | 1.0 | 0.00 | 0.01 | 0.01 | 90 | 1020.6 |
| 20260902171352 | 69 | 146 | 0.0 | 1.0 | 0.00 | 0.01 | 0.01 | 91 | 1021.1 |
| 20260902170843 | 68 | 146 | 0.0 | 1.0 | 0.00 | 0.01 | 0.01 | 91 | 1021.2 |
| 20260902170338 | 68 | 147 | 0.0 | 3.0 | 0.00 | 0.01 | 0.01 | 91 | 1021.3 |
| 20260902170120 | 68 | 147 | 0.0 | 3.0 | 0.00 | 0.01 | 0.01 | 90 | 1020.9 |
| 20260902170053 | 68 | 0 | 0.0 | 4.0 | 0.00 | 0.01 | 0.01 | 90 | 1020.8 |
| 20260902165846 | 68 | 147 | 1.0 | 3.0 | 0.00 | 0.04 | 0.01 | 91 | 1021.4 |
| 20260902165355 | 68 | 155 | 0.0 | 2.0 | 0.00 | 0.04 | 0.01 | 91 | 1021.5 |
| 20260902164844 | 68 | 119 | 1.0 | 3.0 | 0.00 | 0.04 | 0.01 | 91 | 1021.5 |
| 20260902164610 | 68 | 172 | 0.0 | 3.0 | 0.00 | 0.04 | 0.01 | 91 | 1021.1 |
| 20260902164545 | 68 | 0 | 0.0 | 4.0 | 0.00 | 0.04 | 0.01 | 90 | 1021.1 |
| 20260902164354 | 68 | 172 | 0.0 | 3.0 | 0.00 | 0.04 | 0.01 | 91 | 1021.5 |
| 20260902163843 | 68 | 153 | 1.0 | 3.0 | 0.00 | 0.04 | 0.01 | 91 | 1021.6 |
| 20260902163416 | 68 | 170 | 0.0 | 3.0 | 0.00 | 0.04 | 0.01 | 91 | 1021.5 |
| 20260902163055 | 68 | 155 | 0.0 | 4.0 | 0.00 | 0.04 | 0.01 | 91 | 1020.9 |
| 20260902163004 | 68 | 155 | 0.0 | 4.0 | 0.00 | 0.04 | 0.01 | 91 | 1021.1 |
| 20260902162903 | 68 | 128 | 1.0 | 4.0 | 0.00 | 0.04 | 0.01 | 91 | 1021.4 |
| 20260902162351 | 68 | 158 | 1.0 | 3.0 | 0.00 | 0.04 | 0.01 | 91 | 1021.5 |
| 20260902161842 | 68 | 179 | 1.0 | 4.0 | 0.00 | 0.04 | 0.01 | 91 | 1021.4 |
| 20260902161606 | 68 | 157 | 0.0 | 3.0 | 0.00 | 0.04 | 0.01 | 91 | 1020.9 |
| 20260902161602 | 68 | 0 | 0.0 | 3.0 | 0.00 | 0.04 | 0.01 | 90 | 1020.8 |
| 20260902161352 | 68 | 157 | 1.0 | 3.0 | 0.00 | 0.04 | 0.01 | 91 | 1021.4 |
| 20260902160843 | 68 | 164 | 0.0 | 1.0 | 0.00 | 0.04 | 0.01 | 90 | 1021.4 |
| 20260902160354 | 68 | 164 | 0.0 | 3.0 | 0.00 | 0.04 | 0.01 | 91 | 1021.5 |
| 20260902160117 | 68 | 164 | 0.0 | 3.0 | 0.00 | 0.04 | 0.01 | 91 | 1021.2 |
| 20260902160051 | 68 | 0 | 1.0 | 4.0 | 0.00 | 0.04 | 0.01 | 90 | 1021.1 |
| 20260902155841 | 68 | 160 | 1.0 | 4.0 | 0.00 | 0.12 | 0.01 | 90 | 1021.6 |
| 20260902155351 | 68 | 153 | 0.0 | 1.0 | 0.00 | 0.12 | 0.01 | 90 | 1021.5 |
| 20260902154902 | 68 | 163 | 0.0 | 3.0 | 0.00 | 0.12 | 0.01 | 90 | 1021.5 |
| 20260902154608 | 68 | 163 | 0.0 | 3.0 | 0.00 | 0.12 | 0.01 | 90 | 1021.1 |
| 20260902154544 | 68 | 0 | 1.0 | 4.0 | 0.00 | 0.12 | 0.01 | 90 | 1021.1 |
| 20260902154351 | 69 | 175 | 1.0 | 4.0 | 0.00 | 0.12 | 0.01 | 91 | 1021.5 |
| 20260902153841 | 69 | 150 | 0.0 | 1.0 | 0.00 | 0.12 | 0.01 | 91 | 1021.5 |
| 20260902153352 | 68 | 342 | 0.0 | 1.0 | 0.00 | 0.12 | 0.01 | 91 | 1021.5 |
| 20260902153117 | 68 | 342 | 0.0 | 2.0 | 0.00 | 0.12 | 0.01 | 91 | 1021.1 |
| 20260902153053 | 68 | 0 | 0.0 | 2.0 | 0.00 | 0.12 | 0.01 | 90 | 1021.1 |
| 20260902152838 | 68 | 342 | 0.0 | 2.0 | 0.00 | 0.12 | 0.01 | 91 | 1021.6 |
| 20260902152349 | 68 | 342 | 0.0 | 3.0 | 0.00 | 0.12 | 0.01 | 90 | 1021.6 |
| 20260902151859 | 68 | 25 | 0.0 | 3.0 | 0.00 | 0.12 | 0.01 | 90 | 1021.5 |
| 20260902151605 | 68 | 157 | 0.0 | 2.0 | 0.00 | 0.12 | 0.01 | 90 | 1021.1 |
| 20260902151553 | 68 | 0 | 0.0 | 2.0 | 0.00 | 0.12 | 0.01 | 90 | 1021.0 |
| 20260902151347 | 68 | 165 | 1.0 | 2.0 | 0.00 | 0.12 | 0.01 | 90 | 1021.5 |
| 20260902150836 | 68 | 217 | 0.0 | 2.0 | 0.00 | 0.12 | 0.01 | 91 | 1021.7 |
| 20260902150346 | 68 | 159 | 0.0 | 2.0 | 0.00 | 0.12 | 0.01 | 90 | 1021.6 |
| 20260902150113 | 68 | 159 | 0.0 | 3.0 | 0.00 | 0.12 | 0.01 | 90 | 1021.2 |
| 20260902150052 | 68 | 0 | 0.0 | 3.0 | 0.00 | 0.12 | 0.01 | 90 | 1021.2 |
| 20260902145852 | 68 | 137 | 1.0 | 3.0 | 0.00 | 0.44 | 0.01 | 90 | 1021.7 |
| 20260902145341 | 68 | 157 | 0.0 | 2.0 | 0.00 | 0.44 | 0.01 | 90 | 1021.7 |
| 20260902144912 | 68 | 145 | 0.0 | 2.0 | 0.00 | 0.44 | 0.01 | 90 | 1021.6 |
| 20260902144619 | 68 | 145 | 0.0 | 2.0 | 0.00 | 0.44 | 0.01 | 91 | 1021.2 |
| 20260902144542 | 67 | 0 | 0.0 | 2.0 | 0.00 | 0.44 | 0.01 | 90 | 1021.2 |
| 20260902144341 | 68 | 105 | 1.0 | 2.0 | 0.00 | 0.44 | 0.01 | 91 | 1021.6 |
| 20260902143851 | 68 | 284 | 1.0 | 2.0 | 0.00 | 0.44 | 0.01 | 91 | 1021.4 |